Volver al catálogo

GALILEO 18

26E

ActivoNavegaciónMEO
NORAD 41862·PAYLOAD·🇪🇺 EU

Lanzado Nov 17, 2016 desde Guiana Space Centre

Loading…

Próximos Pases (próximas 24 horas)

TLE

ActualizadoSource: CelesTrak SupGP

Época: Sep 13, 2026, 23:59 UTC

1 41862C 16069D   26256.99979167  .00000000  00000+0  00000+0 0  2565
2 41862  55.5538  98.6223 0001521   0.2682 191.8738  1.70474333    11

Sigue GALILEO 18 en tiempo real con AllMySat

Download on the App Store